Vorticity
7 9 10 10 11 10 18 10 20 6 14 7 15 11 19 9 11 12 13 13 13 10 11 15 9 9 8 17 16 12 18 10 13 -1 18 18 16 -0 4 9 10 12 -2 10
7 7 8 9 11 10 13 15 7 28 14 18 8 8 10 9 11 9 20 9 10 14 9 14 12 12 0 18 15 12 13 13 12 11 1 9 6 15 27 22 -1 9 16 21
6 6 6 7 10 13 14 24 17 17 4 13 12 16 6 10 8 7 18 12 9 16 10 13 8 6 5 -3 15 21 6 10 6 8 11 7 5 1 10 6 16 6 13 19
5 6 8 6 6 12 12 16 7 11 -1 10 10 13 9 10 14 11 12 5 12 10 12 10 7 8 14 11 10 18 11 7 19 17 20 19 18 9 10 14 10 9 8 1
5 5 6 10 12 8 10 16 20 14 9 14 12 8 8 11 8 11 8 10 8 11 12 12 11 8 12 5 11 11 12 10 2 5 7 4 3 8 7 9 6 9 10 11
5 5 6 11 14 11 9 8 15 15 7 18 14 6 7 10 9 12 9 7 10 7 12 15 10 9 11 8 9 6 18 12 7 17 4 3 28 4 11 8 4 5 8 -8
6 5 6 11 13 11 12 11 19 16 6 19 8 8 10 11 11 11 9 10 7 6 6 9 11 8 15 9 5 3 5 12 9 14 9 11 7 4 9 7 9 17 17 3
5 5 7 12 12 9 10 13 21 13 12 16 6 7 10 12 13 11 5 10 12 6 9 14 18 9 15 18 8 3 -0 13 8 3 8 0 23 16 7 8 11 21 -10 3
5 5 7 13 11 11 10 15 20 14 16 5 7 7 10 11 11 12 6 16 10 8 19 13 8 8 5 19 13 15 10 7 5 11 11 8 22 -3 -11 13 35 25 -25 7
6 6 10 15 12 10 10 16 17 18 17 14 8 8 10 9 8 16 6 11 9 13 8 12 13 11 3 14 9 10 10 18 7 9 5 13 7 21 -5 14 7 -9 1 5
6 8 16 15 10 9 12 23 14 22 16 16 10 8 5 5 6 2 2 14 -4 12 26 13 10 10 7 13 1 -1 3 10 9 12 10 23 4 4 13 -5 -3 6 8 6
7 15 15 13 8 9 14 28 11 20 15 12 15 8 6 4 2 9 3 0 2 2 7 2 17 2 17 3 10 13 25 4 1 -4 0 -8 4 7 -3 5 7 9 6 3
12 13 11 10 9 9 15 29 20 14 14 11 19 10 8 15 4 -1 2 6 -2 7 -1 17 15 14 11 12 2 7 23 17 6 4 8 -6 6 12 13 12 8 3 4 18
12 13 10 9 10 10 19 21 22 13 12 3 12 16 9 12 18 19 3 7 1 15 10 15 18 13 18 5 -10 6 12 -7 -3 -3 24 22 8 8 5 4 2 2 16 22
13 11 11 10 11 12 25 7 28 11 8 10 21 4 -2 21 14 7 12 5 12 12 14 14 19 19 25 18 29 12 15 16 18 6 3 6 6 6 6 2 5 7 19 18
13 11 11 11 10 19 25 13 19 24 12 15 22 -13 -10 21 4 14 9 11 13 18 16 17 23 10 14 16 13 6 10 10 7 10 6 5 8 6 4 -2 4 11 20 16
12 12 12 10 13 20 9 22 36 12 14 16 17 -5 -10 22 -4 6 12 14 20 24 30 13 12 15 11 14 7 2 4 2 8 9 12 12 7 0 3 -4 4 16 21 13
11 11 9 12 25 13 33 35 21 -6 24 21 5 -4 6 3 3 4 17 22 27 22 12 9 13 17 15 7 3 3 6 8 7 7 7 10 9 9 7 -3 10 22 18 12
11 10 11 20 15 26 30 17 12 -9 6 22 -1 -1 26 -8 5 14 19 23 18 9 17 6 13 14 3 4 7 8 9 10 11 15 12 9 12 6 3 6 21 20 14 11
9 10 13 18 26 29 25 7 13 1 11 12 -12 9 18 7 8 17 36 17 8 11 10 18 10 -9 -11 -15 -2 2 2 13 21 19 14 10 9 3 10 21 20 15 12 13
11 11 17 28 26 28 18 6 16 12 15 -15 -0 15 4 5 28 18 36 8 12 13 6 17 17 7 -10 -12 -11 -2 12 19 18 17 13 9 11 17 20 17 14 12 12 12
13 21 30 30 20 12 17 -6 9 16 -10 10 11 9 9 20 28 21 11 15 13 10 -5 20 10 4 1 -8 3 10 19 17 15 15 15 15 17 15 15 14 12 12 11 10
17 39 24 25 6 9 -5 11 -11 14 4 7 15 8 24 17 19 13 19 13 4 11 22 10 -9 -5 13 0 12 18 16 14 15 14 14 14 14 14 13 13 12 11 11 11
37 35 10 10 3 -8 2 18 25 6 15 16 11 15 32 13 20 12 16 2 24 11 13 -9 -8 4 1 10 17 14 14 13 13 13 13 13 13 13 12 12 11 11 12 12
27 23 1 -7 3 23 11 9 9 10 12 15 15 25 17 17 16 7 17 12 11 11 -32 -7 9 3 10 16 13 13 13 13 13 13 13 13 13 12 12 11 11 12 12 13
13 4 3 12 9 13 8 10 13 15 18 14 26 14 9 8 16 9 6 11 9 -34 6 11 7 13 14 12 13 13 13 13 13 13 13 13 12 12 12 11 11 11 12 13
12 10 15 9 7 8 11 10 20 13 18 21 29 12 11 15 1 16 1 -13 5 13 13 11 13 12 12 13 13 13 13 13 13 14 14 13 13 13 12 12 11 12 12 12
Height
3085 3078 3068 3059 3051 3045 3038 3032 3027 3021 3015 3014 3007 3004 3001 3000 2997 2994 2993 2991 2989 2987 2986 2985 2984 2983 2982 2978 2977 2978 2977 2977 2976 2976 2976 2976 2977 2977 2978 2978 2976 2976 2975 2982
3085 3077 3068 3060 3051 3043 3036 3031 3026 3021 3016 3011 3006 3004 3002 2999 2997 2995 2991 2990 2988 2986 2985 2985 2983 2983 2981 2978 2977 2977 2977 2977 2976 2977 2979 2977 2977 2976 2976 2977 2977 2976 2976 2980
3083 3076 3069 3061 3052 3045 3038 3031 3026 3020 3015 3011 3009 3005 3003 3000 2997 2994 2992 2990 2988 2986 2985 2983 2983 2983 2981 2979 2977 2976 2976 2977 2976 2975 2976 2976 2977 2977 2977 2976 2976 2976 2977 2977
3082 3075 3068 3060 3052 3045 3039 3032 3026 3020 3016 3011 3009 3006 3003 3000 2998 2995 2992 2990 2989 2987 2985 2984 2984 2982 2981 2980 2979 2977 2977 2978 2977 2976 2975 2975 2976 2976 2976 2976 2976 2978 2978 2978
3080 3073 3065 3058 3050 3043 3038 3030 3025 3019 3015 3011 3008 3006 3004 3001 2998 2996 2994 2991 2989 2987 2986 2985 2983 2982 2981 2980 2979 2977 2977 2978 2978 2977 2976 2976 2976 2976 2976 2976 2976 2976 2976 2977
3080 3072 3064 3056 3049 3041 3035 3029 3024 3019 3015 3011 3009 3006 3003 3001 2998 2997 2994 2992 2990 2988 2987 2984 2983 2981 2980 2979 2979 2977 2977 2977 2977 2975 2976 2976 2976 2975 2975 2975 2975 2976 2976 2976
3078 3071 3063 3056 3049 3043 3036 3029 3023 3017 3014 3010 3008 3006 3003 3001 2998 2997 2994 2992 2990 2989 2986 2984 2982 2980 2979 2978 2978 2977 2977 2977 2977 2976 2976 2974 2972 2973 2974 2974 2974 2973 2973 2973
3077 3069 3062 3054 3048 3041 3035 3029 3022 3017 3012 3009 3007 3005 3002 3000 2998 2996 2994 2992 2990 2987 2985 2983 2981 2979 2979 2977 2977 2976 2976 2976 2976 2976 2973 2973 2971 2972 2973 2973 2973 2971 2971 2971
3075 3068 3060 3053 3046 3039 3033 3028 3021 3016 3012 3009 3006 3004 3002 3000 2998 2996 2994 2991 2989 2987 2985 2983 2982 2979 2978 2978 2976 2975 2975 2975 2977 2975 2974 2969 2970 2970 2971 2970 2969 2968 2969 2967
3073 3065 3057 3050 3043 3037 3030 3024 3019 3014 3010 3007 3005 3003 3002 3000 2998 2996 2993 2991 2989 2987 2985 2984 2982 2980 2978 2977 2976 2974 2974 2973 2974 2973 2973 2970 2969 2969 2969 2971 2972 2966 2964 2962
3070 3063 3055 3047 3041 3034 3028 3022 3016 3012 3008 3006 3003 3002 3001 2998 2997 2995 2994 2992 2989 2986 2985 2984 2982 2979 2977 2975 2973 2973 2973 2973 2972 2971 2971 2970 2968 2968 2969 2968 2964 2962 2959 2956
3067 3059 3051 3044 3038 3032 3025 3018 3013 3009 3007 3005 3002 3000 2999 2998 2996 2994 2992 2992 2989 2986 2985 2982 2980 2978 2975 2973 2973 2970 2971 2970 2970 2971 2969 2967 2966 2964 2963 2961 2959 2956 2953 2950
3063 3056 3048 3041 3034 3028 3022 3015 3010 3007 3004 3003 3000 2999 2998 2996 2994 2992 2991 2989 2986 2984 2982 2979 2976 2974 2971 2971 2970 2968 2967 2966 2966 2967 2965 2964 2962 2960 2958 2956 2953 2950 2946 2941
3060 3052 3044 3038 3031 3024 3018 3013 3008 3005 3003 3001 3000 2998 2997 2995 2992 2990 2988 2986 2982 2979 2977 2974 2972 2971 2968 2968 2967 2965 2965 2963 2962 2961 2961 2959 2957 2955 2953 2951 2947 2943 2938 2933
3055 3048 3040 3034 3027 3020 3014 3009 3005 3002 3003 3000 2998 2997 2996 2993 2991 2988 2986 2982 2978 2975 2972 2970 2969 2966 2966 2963 2962 2961 2961 2961 2961 2959 2958 2956 2953 2951 2948 2945 2941 2936 2930 2926
3051 3044 3036 3030 3023 3016 3011 3006 3002 2999 2998 2997 2996 2997 2994 2992 2989 2986 2982 2978 2974 2971 2969 2967 2965 2965 2965 2963 2962 2963 2962 2961 2959 2957 2955 2952 2949 2946 2942 2938 2933 2928 2923 2919
3047 3040 3033 3026 3018 3011 3007 3004 2999 2998 2997 2996 2995 2995 2993 2990 2986 2982 2977 2973 2970 2967 2965 2964 2964 2963 2963 2962 2963 2962 2961 2959 2956 2953 2950 2947 2943 2940 2936 2932 2926 2921 2916 2912
3042 3035 3028 3021 3013 3008 3003 2999 2998 2998 2997 2996 2995 2994 2991 2988 2983 2978 2973 2969 2966 2964 2964 2964 2963 2963 2963 2963 2962 2961 2958 2955 2952 2948 2944 2940 2936 2933 2928 2924 2919 2914 2909 2905
3037 3030 3023 3017 3011 3005 3001 2999 2999 2998 3000 2996 2995 2993 2989 2984 2980 2975 2970 2966 2964 2964 2963 2963 2964 2963 2964 2963 2961 2958 2954 2950 2945 2941 2936 2933 2929 2925 2921 2916 2911 2906 2903 2899
3032 3025 3018 3010 3007 3003 3002 2999 2999 2997 2996 2994 2994 2991 2987 2984 2978 2971 2969 2966 2964 2963 2965 2963 2963 2963 2962 2960 2957 2953 2948 2943 2938 2933 2929 2925 2921 2917 2912 2907 2903 2899 2896 2893
3030 3021 3014 3008 3004 3002 3000 3000 3000 2998 2996 2994 2991 2988 2984 2980 2976 2971 2969 2966 2965 2964 2965 2963 2962 2961 2959 2956 2952 2948 2942 2936 2931 2926 2922 2917 2913 2908 2904 2899 2896 2892 2889 2886
3026 3020 3012 3007 3005 3003 3004 3002 3000 2998 2997 2993 2989 2985 2981 2977 2973 2970 2968 2966 2966 2964 2964 2962 2960 2960 2957 2954 2948 2942 2935 2929 2924 2919 2914 2910 2905 2901 2897 2893 2889 2886 2882 2879
3022 3016 3011 3009 3009 3008 3006 3004 3002 2999 2996 2991 2987 2983 2979 2975 2973 2970 2969 2967 2966 2965 2963 2962 2961 2958 2953 2947 2941 2934 2928 2923 2918 2913 2908 2903 2899 2895 2891 2887 2883 2880 2876 2872
3019 3015 3014 3013 3012 3011 3008 3004 3000 2998 2993 2989 2985 2981 2978 2975 2973 2971 2969 2968 2966 2964 2963 2962 2958 2952 2946 2940 2934 2928 2922 2917 2911 2907 2902 2897 2892 2888 2884 2881 2877 2873 2870 2865
3019 3018 3017 3015 3014 3010 3006 3003 2999 2995 2992 2987 2983 2979 2978 2976 2974 2974 2971 2969 2967 2965 2963 2959 2953 2947 2941 2935 2929 2923 2917 2912 2906 2901 2896 2891 2887 2882 2878 2874 2870 2866 2863 2859
3020 3018 3017 3015 3012 3009 3005 3001 2998 2994 2990 2986 2982 2980 2979 2978 2977 2976 2973 2972 2968 2965 2960 2955 2948 2942 2936 2930 2924 2918 2912 2906 2901 2895 2890 2885 2881 2876 2872 2867 2863 2859 2856 2852
3021 3018 3016 3013 3010 3007 3003 3000 2996 2992 2989 2986 2984 2983 2981 2981 2979 2977 2974 2971 2966 2961 2955 2950 2943 2937 2931 2925 2919 2913 2907 2901 2895 2890 2884 2879 2874 2870 2865 2861 2857 2852 2848 2845